Other Surface Observations
Issued by NWS Charleston, SC

Home | Current Version | Previous Version | Text Only | Print | Product List | Glossary On
Versions: 1 2 3 4 5 6 7 8 9 10 11 12 13 14 15 16 17 18 19 20 21 22 23 24 25 26 27 28 29 30 31 32 33 34 35 36 37 38 39 40 41 42 43 44 45 46 47 48 49 50
000
SXUS52 KCHS 050412
OSOCHS

MARINE OBSERVATIONS
NATIONAL WEATHER SERVICE CHARLESTON SC
1200 AM EDT TUE MAY 05 2015

...DOWNTOWN CHARLESTON AND HARBOR...

CITY           SKY/WX    TMP DP  RH WIND       PRES   REMARKS
WATERFRONT PRK   N/A     70 N/A N/A SE10        N/A
FORT JOHNSON   NOT AVBL

...LAKE MOULTRIE...

CITY           SKY/WX    TMP DP  RH WIND       PRES   REMARKS
PINOPOLIS      NOT AVBL

...LAKE AND SUPPLEMENTAL COASTAL OBSERVATIONS...

STATION/POSITION TIME  TEMP    WIND        PRES    WAVE   SWELL
                       AIR SEA DIR/SP/G            HT/PER HT/PER/DIR
                 (UTC) (F)     (DEG/KT/KT) (MB)    (FT/S) (FT/S/D)
FORT PULASKI     0300   71 71   70/  9/ 10 1026.7R
SAPELO ISLAND    0300   66      60/  3     1026.0R
UPR LAKE MARION  NOT AVBL
WINYAH BAY       0245   71     140/  6     1026.0
LAKE MURRAY      0300   70     180/  7/  9 1026.1R
ACE BASIN NERRS  NOT AVBL


...C-MAN AND BUOY OBSERVATIONS...

STATION/POSITION TIME  TEMP    WIND        PRES    WAVE   SWELL
                       AIR SEA DIR/SP/G            HT/PER HT/PER/DIR
                 (UTC) (F)     (DEG/KT/KT) (MB)    (FT/S) (FT/S/D)
BUOY 41004       0350   73 74  100/ 16/ 19 1026.2F   4/ 4   2/11
BUOY 41008       0350   71 70   90/  8/  8 1025.8F   3/ 6   3/100/ 6
FOLLY BEACH CMAN 0400   71     120/  8/ 10 1026.8S
CAPERS NS BUOY   NOT AVBL
FRIPP NS BUOY    0300   71      90/  8/  8 1025.6
5E ST. MARYS GA  0321      72                N/A     4/ 5   2/ 60/13


STATION/POSITION TIME  TEMP    WIND        PRES    WAVE   SWELL
                       AIR SEA DIR/SP/G            HT/PER HT/PER/DIR
                 (UTC) (F)     (DEG/KT/KT) (MB)    (FT/S) (FT/S/D)
FRYING PAN BUOY  0350   74 72  140/ 14/ 16 1028.0F   4/ 8   2/ 90/ 8
BUOY 41025       0350   74 77  200/ 14/ 17 1027.9R   3/10   3/ 70/10
CAPE LOOKOUT NC  0400   68     190/  6/  6 1027.7F
BUOY 41002       0350   68 70  110/ 14/ 16 1027.7F   5/10   3/ 50/10
BUOY 41010       0320   74 78   90/ 19/ 23 1023.2F
ST AUGUSTINE FL  0400   72 72   90/ 11/ 13 1025.2R

$$



USA.gov is the U.S. government's official web portal to all federal, state and local government web resources and services.